• In Lithuania
  • List of Countries
  • For 7 days
  • Water Temperature
  • Satellite Maps
  • Weather Map
  • Weather Widgets
  • user-avatar
    Login

    Hourly Weather San Luis

    Today, 19 October, Friday

    Time Temperature Precipitation Wind Pressure Humidity
    00:00 +18°C° 0 mm 7 mps 702 mmHg 80%
    01:00 +18°C° 0 mm 7 mps 702 mmHg 81%
    02:00 +17°C° 0 mm 7 mps 702 mmHg 81%
    03:00 +17°C° 0 mm 6 mps 702 mmHg 81%
    04:00 +17°C° 0 mm 6 mps 702 mmHg 81%
    05:00 +17°C° 0 mm 6 mps 702 mmHg 81%
    06:00 +17°C° 0.2 mm 6 mps 702 mmHg 79%
    07:00 +19°C° 0.2 mm 6 mps 702 mmHg 76%
    08:00 +19°C° 0.2 mm 5 mps 703 mmHg 74%
    09:00 +20°C° 0.4 mm 5 mps 703 mmHg 72%
    10:00 +20°C° 0.4 mm 5 mps 703 mmHg 70%
    11:00 +20°C° 0.4 mm 4 mps 703 mmHg 68%
    12:00 +21°C° 0.1 mm 4 mps 702 mmHg 63%
    13:00 +22°C° 0.1 mm 4 mps 702 mmHg 58%
    14:00 +22°C° 0.1 mm 3 mps 701 mmHg 53%
    15:00 +23°C° 0 mm 4 mps 701 mmHg 51%
    16:00 +23°C° 0 mm 5 mps 701 mmHg 48%
    17:00 +25°C° 0 mm 5 mps 701 mmHg 46%
    18:00 +23°C° 0.1 mm 5 mps 701 mmHg 51%
    19:00 +21°C° 0.1 mm 5 mps 701 mmHg 56%
    20:00 +20°C° 0.1 mm 5 mps 701 mmHg 61%
    21:00 +19°C° 0.2 mm 5 mps 701 mmHg 64%
    22:00 +19°C° 0.2 mm 5 mps 701 mmHg 66%
    23:00 +17°C° 0.2 mm 5 mps 701 mmHg 69%

    Tomorrow, 20 October, Saturday

    Time Temperature Precipitation Wind Pressure Humidity
    00:00 +17°C° 0.1 mm 5 mps 701 mmHg 69%
    01:00 +17°C° 0.1 mm 5 mps 700 mmHg 69%
    02:00 +17°C° 0.1 mm 5 mps 700 mmHg 69%
    03:00 +18°C° 0.1 mm 4 mps 700 mmHg 71%
    04:00 +17°C° 0.1 mm 4 mps 699 mmHg 74%
    05:00 +17°C° 0.1 mm 3 mps 699 mmHg 77%
    06:00 +18°C° 0.4 mm 3 mps 700 mmHg 76%
    07:00 +18°C° 0.4 mm 4 mps 700 mmHg 75%
    08:00 +19°C° 0.4 mm 4 mps 700 mmHg 74%
    09:00 +19°C° 0.3 mm 4 mps 700 mmHg 71%
    10:00 +20°C° 0.3 mm 4 mps 700 mmHg 69%
    11:00 +21°C° 0.3 mm 4 mps 700 mmHg 66%
    12:00 +22°C° 0.4 mm 4 mps 700 mmHg 62%
    13:00 +23°C° 0.4 mm 4 mps 699 mmHg 57%
    14:00 +25°C° 0.4 mm 5 mps 699 mmHg 52%
    15:00 +26°C° 0.3 mm 4 mps 698 mmHg 52%
    16:00 +26°C° 0.3 mm 4 mps 698 mmHg 51%
    17:00 +26°C° 0.3 mm 3 mps 697 mmHg 51%
    18:00 +24°C° 0 mm 3 mps 697 mmHg 56%
    19:00 +22°C° 0 mm 3 mps 698 mmHg 62%
    20:00 +21°C° 0 mm 3 mps 698 mmHg 67%
    21:00 +20°C° 0 mm 3 mps 698 mmHg 70%
    22:00 +20°C° 0 mm 3 mps 698 mmHg 72%
    23:00 +19°C° 0 mm 4 mps 698 mmHg 74%

    Day after tomorrow, 21 October, Sunday

    Time Temperature Precipitation Wind Pressure Humidity
    00:00 +19°C° 0 mm 4 mps 698 mmHg 75%
    01:00 +19°C° 0 mm 4 mps 697 mmHg 75%
    02:00 +19°C° 0 mm 4 mps 697 mmHg 75%
    03:00 +18°C° 0 mm 3 mps 697 mmHg 76%
    04:00 +18°C° 0 mm 3 mps 696 mmHg 77%
    05:00 +18°C° 0 mm 3 mps 696 mmHg 78%
    06:00 +19°C° 0 mm 3 mps 697 mmHg 70%
    07:00 +21°C° 0 mm 3 mps 697 mmHg 62%
    08:00 +22°C° 0 mm 4 mps 698 mmHg 54%
    09:00 +25°C° 0 mm 4 mps 698 mmHg 49%
    10:00 +26°C° 0 mm 4 mps 698 mmHg 45%
    11:00 +28°C° 0 mm 4 mps 698 mmHg 40%
    12:00 +28°C° 0.2 mm 4 mps 697 mmHg 40%
    13:00 +28°C° 0.2 mm 4 mps 697 mmHg 39%
    14:00 +29°C° 0.2 mm 4 mps 696 mmHg 39%
    15:00 +28°C° 0.2 mm 4 mps 696 mmHg 42%
    16:00 +27°C° 0.2 mm 5 mps 695 mmHg 45%
    17:00 +27°C° 0.2 mm 5 mps 695 mmHg 48%
    18:00 +24°C° 0.1 mm 6 mps 695 mmHg 54%
    19:00 +23°C° 0.1 mm 6 mps 696 mmHg 60%
    20:00 +21°C° 0.1 mm 6 mps 696 mmHg 66%
    21:00 +21°C° 0.5 mm 6 mps 696 mmHg 72%
    22:00 +20°C° 0.5 mm 6 mps 697 mmHg 77%
    23:00 +19°C° 0.5 mm 5 mps 697 mmHg 82%

    22 October, Monday

    Time Temperature Precipitation Wind Pressure Humidity
    00:00 +19°C° 0.3 mm 5 mps 697 mmHg 84%
    01:00 +17°C° 0.3 mm 5 mps 697 mmHg 85%
    02:00 +17°C° 0.3 mm 5 mps 696 mmHg 87%
    03:00 +17°C° 0.3 mm 6 mps 697 mmHg 87%
    04:00 +17°C° 0.3 mm 6 mps 697 mmHg 86%
    05:00 +16°C° 0.3 mm 7 mps 697 mmHg 86%
    06:00 +16°C° 0.1 mm 7 mps 698 mmHg 84%
    07:00 +16°C° 0.1 mm 7 mps 698 mmHg 82%
    08:00 +16°C° 0.1 mm 8 mps 699 mmHg 80%
    09:00 +16°C° 0.1 mm 8 mps 699 mmHg 78%
    10:00 +16°C° 0.1 mm 8 mps 699 mmHg 76%
    11:00 +16°C° 0.1 mm 9 mps 700 mmHg 74%
    12:00 +16°C° 0 mm 9 mps 700 mmHg 69%
    13:00 +16°C° 0 mm 9 mps 700 mmHg 64%
    14:00 +16°C° 0 mm 10 mps 700 mmHg 59%
    15:00 +16°C° 0 mm 10 mps 699 mmHg 58%
    16:00 +14°C° 0 mm 10 mps 699 mmHg 56%
    17:00 +15°C° 0 mm 9 mps 699 mmHg 55%
    18:00 +13°C° 0 mm 9 mps 700 mmHg 57%
    19:00 +12°C° 0 mm 8 mps 700 mmHg 60%
    20:00 +11°C° 0 mm 8 mps 700 mmHg 62%
    21:00 +11°C° 0 mm 7 mps 700 mmHg 64%
    22:00 +11°C° 0 mm 7 mps 701 mmHg 66%
    23:00 +11°C° 0 mm 6 mps 701 mmHg 68%

    23 October, Tuesday

    Time Temperature Precipitation Wind Pressure Humidity
    00:00 +11°C° 0 mm 6 mps 701 mmHg 70%
    01:00 +11°C° 0 mm 6 mps 701 mmHg 72%
    02:00 +11°C° 0 mm 7 mps 700 mmHg 74%
    03:00 +11°C° 0 mm 7 mps 700 mmHg 75%
    04:00 +11°C° 0 mm 7 mps 701 mmHg 76%
    05:00 +10°C° 0 mm 7 mps 701 mmHg 77%
    06:00 +12°C° 0 mm 7 mps 701 mmHg 72%
    07:00 +14°C° 0 mm 7 mps 702 mmHg 67%
    08:00 +16°C° 0 mm 7 mps 702 mmHg 63%
    09:00 +18°C° 0 mm 7 mps 702 mmHg 58%
    10:00 +20°C° 0 mm 6 mps 702 mmHg 53%
    11:00 +22°C° 0 mm 6 mps 702 mmHg 48%
    12:00 +23°C° 0 mm 6 mps 702 mmHg 46%
    13:00 +23°C° 0 mm 5 mps 701 mmHg 44%
    14:00 +25°C° 0 mm 5 mps 700 mmHg 42%
    15:00 +24°C° 0 mm 6 mps 700 mmHg 43%
    16:00 +24°C° 0 mm 6 mps 699 mmHg 43%
    17:00 +24°C° 0 mm 7 mps 699 mmHg 44%
    18:00 +22°C° 0 mm 6 mps 699 mmHg 49%
    19:00 +21°C° 0 mm 6 mps 699 mmHg 54%
    20:00 +19°C° 0 mm 6 mps 699 mmHg 59%
    21:00 +19°C° 0 mm 6 mps 699 mmHg 60%
    22:00 +19°C° 0 mm 6 mps 700 mmHg 62%
    23:00 +19°C° 0 mm 6 mps 700 mmHg 63%

    24 October, Wednesday

    Time Temperature Precipitation Wind Pressure Humidity
    00:00 +17°C° 0 mm 6 mps 699 mmHg 65%
    01:00 +17°C° 0 mm 5 mps 699 mmHg 66%
    02:00 +17°C° 0 mm 5 mps 699 mmHg 68%
    03:00 +17°C° 0 mm 5 mps 698 mmHg 70%
    04:00 +16°C° 0 mm 5 mps 698 mmHg 72%
    05:00 +16°C° 0 mm 5 mps 698 mmHg 73%
    06:00 +17°C° 0 mm 5 mps 699 mmHg 69%
    07:00 +19°C° 0 mm 6 mps 699 mmHg 65%
    08:00 +20°C° 0 mm 6 mps 700 mmHg 61%
    09:00 +21°C° 0 mm 6 mps 700 mmHg 58%
    10:00 +22°C° 0 mm 7 mps 699 mmHg 54%
    11:00 +23°C° 0 mm 7 mps 699 mmHg 50%
    12:00 +24°C° 0.1 mm 7 mps 699 mmHg 49%
    13:00 +24°C° 0.1 mm 7 mps 698 mmHg 49%
    14:00 +24°C° 0.1 mm 7 mps 697 mmHg 48%
    15:00 +24°C° 0 mm 6 mps 697 mmHg 48%
    16:00 +24°C° 0 mm 6 mps 696 mmHg 48%
    17:00 +25°C° 0 mm 5 mps 696 mmHg 49%
    18:00 +23°C° 0.1 mm 5 mps 696 mmHg 54%
    19:00 +22°C° 0.1 mm 4 mps 696 mmHg 58%
    20:00 +21°C° 0.1 mm 4 mps 696 mmHg 63%
    21:00 +20°C° 0.4 mm 4 mps 696 mmHg 66%
    22:00 +20°C° 0.4 mm 4 mps 697 mmHg 69%
    23:00 +19°C° 0.4 mm 4 mps 697 mmHg 71%
    Show more